Terminal Aerodrome Forecast
Issued by NWS

Current Version | Previous Version | Graphics & Text | Print | Product List | Glossary On
Versions: 1 2 3 4 5 6 7 8 9 10 11 12 13 14 15 16 17 18 19 20 21 22 23
000
FTUS41 KILN 251700
TAFLUK
TAF
KLUK 251729Z 2518/2618 08010KT 4SM -SHRA BR SCT008 OVC015
      TEMPO 2518/2521 OVC008
     FM252100 06012G20KT P6SM VCSH OVC008
     FM260800 02012G20KT P6SM SCT008 BKN035
     FM261300 01013KT P6SM SCT035=

USA.gov is the U.S. government's official web portal to all federal, state and local government web resources and services.